RH
32 42 47 37 41 38 37 40 44 35 29 30 34 35 30 50 54 54 55 53 53 56 55 48 45 44 42 38 29 20 19 24 27 28 27 26 22 16 15 14 11 11 11 12
42 52 35 33 35 38 39 43 42 35 30 36 35 35 30 44 50 49 52 52 50 49 46 44 44 44 41 37 34 25 23 23 28 30 31 28 20 19 19 14 13 12 14 14
51 44 36 38 39 41 40 43 41 39 30 29 31 35 30 32 37 42 46 48 49 49 46 44 43 42 41 37 36 28 24 23 29 38 38 30 22 23 21 17 15 16 17 16
67 49 46 47 50 45 54 37 36 36 38 47 30 43 31 28 42 41 42 46 47 46 44 42 41 42 40 38 36 34 24 24 31 41 38 24 19 22 23 19 18 18 18 17
68 52 57 59 52 43 50 37 41 41 45 43 36 43 36 27 40 44 39 40 44 43 42 42 40 40 41 38 38 36 28 28 32 34 29 26 30 28 20 21 21 22 19 19
58 47 49 47 40 40 37 40 42 38 45 54 40 43 37 32 29 36 35 36 41 41 41 42 44 43 41 39 38 37 29 26 31 31 30 30 29 22 21 22 26 24 22 23
52 56 48 43 51 43 46 56 79 75 61 55 37 41 34 29 25 24 26 33 37 41 42 41 45 46 42 41 41 39 31 28 30 32 31 30 28 22 23 26 27 24 24 27
82 73 48 46 45 50 48 50 69 79 70 54 36 47 36 25 21 20 21 21 32 41 40 41 43 47 42 41 41 39 37 34 31 30 28 27 24 24 26 27 27 26 28 29
95 84 56 47 50 40 47 57 43 58 55 66 50 38 29 24 22 24 24 27 27 35 41 42 46 49 43 41 43 41 38 38 32 29 26 24 25 26 27 27 27 27 30 29
78 93 62 64 48 41 43 38 53 57 84 77 58 52 45 34 31 30 28 35 33 37 44 46 52 54 44 42 45 44 40 37 37 33 28 25 27 29 29 30 30 30 32 32
65 83 73 62 55 56 52 46 58 54 70 98 85 63 33 37 38 39 34 32 39 41 45 48 55 56 48 47 46 46 44 42 40 37 32 31 31 33 32 31 33 33 35 36
77 77 96 74 53 49 70 85 89 95 89 90 88 59 39 49 51 44 50 48 47 44 46 50 56 58 57 50 48 47 48 45 41 40 39 36 36 36 34 33 34 37 37 41
71 93 98 68 68 63 79 75 90 100 100 97 97 73 48 46 53 51 47 43 48 48 48 51 56 58 56 49 48 50 51 48 46 46 47 42 40 37 35 35 38 39 41 44
59 89 89 84 69 65 70 63 54 82 97 78 83 74 57 60 47 53 50 44 44 51 51 55 60 60 57 53 51 52 53 52 49 52 51 45 42 38 36 38 41 42 44 46
76 100 80 78 77 78 79 90 86 96 95 98 81 70 57 49 46 49 49 47 46 46 53 55 56 58 57 53 53 53 53 53 53 53 52 50 44 40 40 44 42 45 47 49
69 86 86 82 62 70 81 63 63 67 73 58 60 80 55 50 51 55 50 48 44 47 46 48 52 56 60 54 55 56 54 55 55 56 57 53 47 43 46 45 46 48 49 51
83 92 97 78 52 54 78 62 60 55 48 49 68 62 53 61 53 45 46 46 42 40 44 48 50 49 54 56 56 56 56 56 58 58 60 59 52 62 57 54 53 54 55 54
80 78 90 84 74 90 45 35 34 40 39 42 44 47 50 47 45 42 43 42 39 40 39 47 54 56 64 63 67 64 63 59 60 64 66 90 90 93 60 55 55 57 57 56
80 83 94 92 80 57 53 38 50 52 46 41 64 58 51 53 53 46 43 41 39 35 36 38 41 49 56 63 68 70 67 62 64 68 89 97 98 72 60 56 59 59 56 59
81 85 92 88 93 87 53 46 35 49 77 51 63 63 54 51 73 56 36 38 38 39 34 43 53 64 68 72 74 72 68 68 70 90 99 98 95 61 60 60 59 58 59 59
86 97 95 90 92 68 76 66 66 80 69 68 69 68 66 73 64 51 45 38 39 29 39 51 61 68 75 78 77 79 68 75 98 100 98 96 86 66 58 58 56 57 58 63
66 73 64 67 77 86 55 63 83 63 50 54 47 57 53 52 43 44 48 46 50 47 55 69 75 83 84 82 82 75 78 98 100 99 97 92 74 63 59 56 55 60 63 65
77 66 67 76 75 53 56 50 38 38 48 51 47 45 48 55 45 45 51 57 60 62 73 79 78 85 88 86 82 80 97 100 99 97 92 65 62 58 59 52 52 56 60 68
65 56 83 83 60 54 48 38 38 47 50 50 54 52 57 60 51 52 57 60 64 72 77 83 85 87 94 94 92 97 98 98 98 94 68 62 58 59 56 54 56 55 65 63
65 65 70 75 55 54 43 42 38 42 53 61 49 52 64 70 63 53 60 64 68 72 77 82 83 87 90 96 98 99 99 98 91 66 61 60 62 58 56 58 55 61 60 45
69 64 75 67 50 53 48 35 44 42 44 52 53 56 65 68 66 56 60 64 67 71 75 79 82 82 97 100 99 97 98 92 65 62 61 60 58 56 53 47 50 66 62 66
Wind_Speed
5 3 7 10 10 6 3 4 8 11 11 3 12 9 9 21 22 17 22 28 36 45 45 41 37 34 32 30 31 31 31 29 27 25 22 18 13 10 7 4 0 3 7 10
2 11 10 8 6 7 7 8 13 10 15 7 10 10 11 11 23 34 35 36 37 38 45 44 41 39 36 34 31 31 30 30 28 24 20 16 14 12 8 4 1 3 6 9
14 7 6 7 9 9 11 9 10 11 14 5 6 7 7 5 9 30 29 37 31 34 45 46 46 44 39 36 33 32 31 30 28 25 23 20 17 14 10 6 2 2 5 9
9 14 14 12 11 7 12 5 9 7 6 9 5 13 10 5 8 12 27 29 34 43 50 51 50 49 45 38 33 32 32 31 30 28 25 22 19 16 11 7 5 3 4 7
8 5 8 11 12 5 6 4 7 10 8 6 7 5 6 5 6 13 18 31 38 47 52 55 57 53 46 38 35 33 32 32 30 28 25 23 20 15 13 10 7 4 4 6
13 11 3 6 4 4 2 4 11 4 2 12 7 7 10 10 12 6 16 31 41 50 51 51 52 51 46 41 38 35 34 33 31 29 26 23 20 18 15 11 9 5 4 6
5 17 16 15 14 11 7 1 4 4 2 11 8 9 15 8 8 14 14 28 37 44 46 52 55 56 53 47 42 37 35 35 32 29 26 25 22 19 15 11 9 6 6 6
3 5 5 5 8 8 4 13 7 9 6 7 5 9 6 8 13 15 13 23 32 39 50 54 57 57 58 50 45 40 38 34 32 30 28 26 22 19 16 12 10 8 7 7
4 4 7 3 3 1 4 4 13 15 16 9 10 20 16 5 7 6 13 12 26 44 48 54 55 56 59 53 48 44 39 35 33 31 29 26 23 20 17 14 11 9 8 7
2 6 4 8 7 3 4 4 2 3 4 10 6 7 10 9 9 9 9 12 17 30 34 40 46 51 55 54 49 41 37 35 33 31 28 26 23 20 17 14 12 9 8 7
4 5 5 7 3 5 6 2 4 3 3 3 6 6 3 7 8 12 13 15 15 27 34 38 40 45 52 53 47 42 39 37 34 31 29 26 24 20 17 14 12 10 9 8
3 3 5 8 11 10 2 4 3 3 4 4 5 16 3 7 8 11 15 18 7 18 28 33 38 42 47 50 47 45 41 38 34 32 30 26 24 20 17 15 12 11 9 8
3 1 4 6 3 5 5 3 4 2 4 4 4 9 10 18 16 20 18 21 7 13 24 32 37 44 48 51 48 46 42 39 36 33 31 28 25 21 18 15 13 12 10 8
4 4 6 10 7 11 14 16 11 5 5 9 10 18 20 20 24 21 20 21 18 13 24 30 35 42 46 49 50 48 45 42 38 35 32 28 25 21 18 16 14 11 10 8
3 4 4 12 11 12 17 18 18 14 12 7 11 14 24 22 23 24 29 28 22 24 23 28 34 40 46 50 52 50 47 44 41 37 33 29 25 21 19 17 14 12 10 7
3 4 4 17 17 11 15 20 24 16 18 20 24 23 22 32 35 27 25 21 21 24 30 36 38 41 47 52 56 54 50 46 42 39 36 29 25 23 19 18 15 13 10 7
3 2 1 13 18 12 10 21 16 20 22 15 15 19 18 19 20 19 26 28 27 29 34 40 45 46 48 51 56 57 52 48 45 38 34 28 26 21 20 16 14 12 9 8
9 10 3 10 14 12 10 10 18 24 22 16 16 19 20 18 27 30 32 35 33 19 26 35 41 44 40 43 49 51 50 49 44 38 32 30 23 19 20 16 14 13 11 10
15 6 4 5 10 15 12 17 8 7 12 12 8 6 7 25 24 29 38 34 15 20 27 32 38 42 42 43 47 48 48 47 42 39 34 24 20 23 20 18 17 14 12 12
5 11 8 7 10 10 9 13 8 6 8 6 9 7 12 17 6 11 21 15 22 35 32 29 35 35 38 42 47 48 50 47 40 29 23 21 21 20 18 17 16 14 13 11
4 4 13 13 10 8 8 10 21 6 5 4 4 6 11 4 8 25 30 35 27 20 21 19 30 34 36 40 43 46 46 41 32 26 22 21 21 19 18 18 15 14 13 11
6 4 9 10 12 14 15 4 8 7 7 10 16 18 13 16 13 19 26 21 16 9 11 18 25 30 34 36 40 42 42 34 27 23 22 23 22 20 18 17 15 15 13 11
8 9 7 8 5 6 7 9 22 26 27 25 23 22 26 24 20 21 16 12 12 12 18 22 26 29 31 32 33 41 36 30 25 24 25 23 20 18 19 16 15 15 12 12
8 15 8 7 18 18 28 25 21 24 28 27 23 23 25 26 24 21 18 15 14 16 20 22 24 28 30 32 36 31 26 23 23 24 25 21 20 20 17 15 14 12 13 12
10 2 4 6 10 12 20 14 21 24 22 22 22 23 24 22 24 21 20 17 17 18 20 24 25 28 29 25 23 21 19 19 21 23 20 20 20 17 16 14 12 12 11 9
9 11 5 10 14 12 17 26 18 29 29 27 25 29 21 18 20 22 22 19 19 21 22 23 25 27 27 26 22 20 17 18 21 21 20 19 17 17 16 14 14 11 8 7
Wind_Direction
207 163 211 211 211 236 296 279 276 272 274 291 273 259 264 202 209 210 203 199 197 203 203 203 203 203 201 200 198 197 195 193 195 193 193 196 197 198 199 209 352 357 355 355
259 234 229 222 224 228 248 263 278 283 277 191 264 259 256 188 210 209 203 202 201 196 201 203 204 204 204 202 201 201 200 198 198 200 198 200 201 195 197 203 232 345 352 351
222 219 179 194 250 251 251 241 260 257 283 238 261 272 249 239 231 219 215 212 203 201 200 204 204 205 202 203 202 204 202 201 199 197 200 199 199 198 198 195 219 316 344 343
243 241 244 254 246 213 266 213 244 254 290 282 153 287 256 240 224 197 216 208 204 206 211 210 207 204 203 202 206 206 204 201 198 200 207 212 207 198 198 200 210 247 319 328
219 204 205 221 235 229 250 301 272 277 264 298 258 267 262 194 245 217 215 209 207 212 213 213 212 208 202 204 205 204 202 201 202 205 206 203 199 200 202 203 210 231 287 312
253 280 248 198 261 257 263 323 304 252 181 261 245 207 239 227 224 238 220 212 208 212 213 213 211 208 201 203 206 203 200 201 202 201 200 204 206 204 203 206 213 231 273 299
241 241 248 255 268 268 248 87 297 290 191 256 187 234 259 233 236 221 227 216 213 210 204 210 208 207 202 200 199 199 200 201 201 202 200 200 203 204 203 209 222 239 264 285
346 324 177 342 220 232 244 219 213 243 232 271 245 242 248 211 230 249 248 246 217 206 211 211 210 206 203 199 198 198 198 199 200 200 199 198 201 202 200 208 221 236 252 276
334 258 322 353 341 155 289 201 229 250 259 276 255 270 280 283 275 287 298 287 218 214 209 210 207 203 203 200 197 199 197 198 199 200 199 198 199 201 203 209 217 230 246 270
58 303 298 323 333 268 202 227 269 234 247 244 238 263 261 318 304 292 275 281 231 213 203 200 200 198 203 202 198 198 201 200 199 199 201 200 199 201 205 209 218 230 248 263
213 194 307 351 274 332 335 313 348 352 210 240 286 253 298 311 324 311 304 293 239 207 199 198 195 197 202 201 198 197 197 198 198 200 201 200 200 202 203 209 218 228 241 251
178 268 252 243 263 279 111 43 37 151 298 306 289 262 113 55 10 14 5 354 273 214 203 200 197 195 197 199 198 199 196 197 200 202 202 202 203 203 205 208 217 227 239 245
323 300 314 310 97 38 81 165 145 197 223 224 274 276 346 335 341 342 344 348 298 218 203 202 201 201 201 202 200 200 198 200 200 201 200 201 204 206 207 213 215 224 235 241
241 208 221 262 284 314 294 295 286 238 244 272 237 286 299 315 314 310 318 328 318 237 217 209 206 206 203 205 203 200 200 200 199 200 200 202 205 206 210 212 215 222 227 235
27 273 257 269 254 257 275 286 290 262 244 242 298 275 279 283 287 287 299 302 291 281 238 225 219 216 209 206 205 204 203 201 200 200 202 203 203 206 207 208 212 212 215 225
315 265 290 285 279 248 258 265 264 254 256 262 256 263 260 267 274 282 285 287 269 256 261 250 236 223 217 210 207 205 204 199 198 200 200 199 201 204 203 207 205 204 210 228
232 219 106 279 284 289 259 243 257 262 264 257 253 246 260 256 263 281 290 281 276 262 252 244 237 230 222 216 211 206 204 198 195 198 200 196 199 198 203 199 200 202 216 230
246 253 194 274 294 265 247 227 241 250 259 259 265 261 257 257 271 280 280 277 276 289 292 247 233 225 219 215 208 206 203 195 193 195 193 192 196 198 197 201 204 208 216 226
211 226 246 244 249 276 298 269 237 199 250 257 241 286 296 279 281 281 270 265 283 287 287 259 249 233 220 212 206 202 196 193 193 190 194 195 197 198 200 201 206 212 219 223
158 210 229 246 270 273 276 330 274 251 262 276 238 248 265 296 280 268 308 284 259 260 292 253 235 216 208 201 199 197 190 189 189 190 199 196 186 204 204 209 211 217 223 225
245 215 229 251 267 274 241 251 325 252 245 292 327 273 257 225 256 291 291 286 293 282 283 242 214 204 198 196 197 190 192 189 189 201 191 181 192 203 213 215 217 223 219 223
218 224 250 249 251 263 222 230 187 237 310 275 301 283 286 281 287 285 286 291 292 274 241 206 190 184 185 191 194 194 186 191 196 190 181 182 198 207 214 216 213 214 220 229
251 203 237 206 228 237 225 260 292 280 271 267 263 264 284 271 273 270 263 259 249 208 191 190 190 181 181 188 196 188 191 191 183 180 175 193 205 214 212 214 214 214 224 235
245 243 236 236 253 251 260 272 294 294 271 267 269 270 274 265 267 250 239 228 211 197 185 183 179 174 171 182 185 190 176 178 182 173 189 199 210 206 207 210 220 226 233 239
239 302 224 255 276 267 268 273 300 312 292 268 278 289 281 278 258 237 229 210 200 190 182 184 182 178 174 173 172 174 179 185 176 188 198 202 202 210 214 216 227 229 229 240
207 233 217 251 251 244 262 294 283 306 296 286 279 288 282 263 244 226 216 208 198 186 179 178 177 174 172 176 176 175 184 175 190 198 197 200 208 213 218 221 217 212 222 227